,,,PA_Meas_PMT16A,,PR_Meas_QMR101_102,,RH_Meas_QMH101,,SR_Meas_QMS101,,TA_Meas_QMH101,,GenWind,,GenWind,
date,time,status,PA,status,PR,status,RH,status,SR,status,TA,status,DirAvg,status,SpdAvg,
2009-09-21, 00:00:05,VALID,1011.96,VALID,0,VALID,99.089,VALID,0.105969,VALID,22.603,VALID,357,VALID,0,
2009-09-21, 00:01:05,VALID,1011.95,VALID,0,VALID,99.1119,VALID,0,VALID,22.564,VALID,357,VALID,0,
2009-09-21, 00:02:05,VALID,1011.93,VALID,0,VALID,99.1043,VALID,0,VALID,22.5446,VALID,357,VALID,0,
2009-09-21, 00:03:05,VALID,1011.91,VALID,0,VALID,99.0967,VALID,0.105969,VALID,22.5446,VALID,357,VALID,0,
2009-09-21, 00:04:05,VALID,1011.88,VALID,0,VALID,99.1195,VALID,0.105969,VALID,22.5251,VALID,357,VALID,0,
2009-09-21, 00:05:05,VALID,1011.88,VALID,0,VALID,99.0967,VALID,0,VALID,22.5056,VALID,357,VALID,0,
2009-09-21, 00:06:05,VALID,1011.85,VALID,0,VALID,99.1195,VALID,0.105969,VALID,22.5056,VALID,357,VALID,0,
2009-09-21, 00:07:05,VALID,1011.86,VALID,0,VALID,99.1195,VALID,0,VALID,22.4861,VALID,357,VALID,0,
2009-09-21, 00:08:05,VALID,1011.84,VALID,0,VALID,99.1195,VALID,0.105969,VALID,22.5056,VALID,357,VALID,0,
2009-09-21, 00:09:05,VALID,1011.84,VALID,0,VALID,99.1348,VALID,0.105969,VALID,22.5056,VALID,357,VALID,0,
2009-09-21, 00:10:05,VALID,1011.85,VALID,0,VALID,99.1424,VALID,0,VALID,22.4861,VALID,357,VALID,0,
2009-09-21, 00:11:05,VALID,1011.83,VALID,0,VALID,99.1577,VALID,0.105969,VALID,22.4667,VALID,357,VALID,0,
2009-09-21, 00:12:05,VALID,1011.85,VALID,0,VALID,99.1577,VALID,0,VALID,22.4667,VALID,357,VALID,0,
2009-09-21, 00:13:05,VALID,1011.86,VALID,0,VALID,99.1805,VALID,0,VALID,22.4455,VALID,357,VALID,0,
2009-09-21, 00:14:05,VALID,1011.91,VALID,0,VALID,99.1729,VALID,0.105969,VALID,22.4455,VALID,357,VALID,0,
2009-09-21, 00:15:05,VALID,1011.89,VALID,0,VALID,99.1958,VALID,0.105969,VALID,22.4472,VALID,357,VALID,0,
2009-09-21, 00:16:05,VALID,1011.91,VALID,0,VALID,99.2034,VALID,0.105969,VALID,22.4472,VALID,357,VALID,0,
2009-09-21, 00:17:05,VALID,1011.92,VALID,0,VALID,99.1958,VALID,0,VALID,22.4472,VALID,357,VALID,0,
2009-09-21, 00:18:05,VALID,1011.93,VALID,0,VALID,99.2034,VALID,0.105969,VALID,22.4472,VALID,357,VALID,0,
2009-09-21, 00:19:05,VALID,1011.91,VALID,0,VALID,99.1958,VALID,0,VALID,22.4472,VALID,357,VALID,0,
2009-09-21, 00:20:05,VALID,1011.91,VALID,0,VALID,99.2111,VALID,0,VALID,22.4472,VALID,357,VALID,0,
2009-09-21, 00:21:05,VALID,1011.9,VALID,0,VALID,99.2187,VALID,0.105969,VALID,22.426,VALID,357,VALID,0,
2009-09-21, 00:22:05,VALID,1011.9,VALID,0,VALID,99.2263,VALID,0.105969,VALID,22.4472,VALID,357,VALID,0,
2009-09-21, 00:23:05,VALID,1011.86,VALID,0,VALID,99.2187,VALID,0.105969,VALID,22.4472,VALID,357,VALID,0,
2009-09-21, 00:24:05,VALID,1011.84,VALID,0,VALID,99.2339,VALID,0.105969,VALID,22.4277,VALID,357,VALID,0,
2009-09-21, 00:25:05,VALID,1011.82,VALID,0,VALID,99.2263,VALID,0,VALID,22.426,VALID,357,VALID,0,
2009-09-21, 00:26:05,VALID,1011.78,VALID,0,VALID,99.2187,VALID,0.105969,VALID,22.4472,VALID,357,VALID,0,
2009-09-21, 00:27:05,VALID,1011.75,VALID,0,VALID,99.2416,VALID,0,VALID,22.4472,VALID,357,VALID,0,
2009-09-21, 00:28:05,VALID,1011.71,VALID,0,VALID,99.2568,VALID,0.105969,VALID,22.4472,VALID,357,VALID,0,
2009-09-21, 00:29:05,VALID,1011.7,VALID,0,VALID,99.2339,VALID,0.105969,VALID,22.4277,VALID,357,VALID,0,
2009-09-21, 00:30:05,VALID,1011.65,VALID,0,VALID,99.2492,VALID,0.105969,VALID,22.4472,VALID,357,VALID,0,
2009-09-21, 00:31:05,VALID,1011.68,VALID,0,VALID,99.2416,VALID,0,VALID,22.4277,VALID,357,VALID,0,
2009-09-21, 00:32:05,VALID,1011.64,VALID,0,VALID,99.2568,VALID,0,VALID,22.4472,VALID,357,VALID,0,
2009-09-21, 00:33:05,VALID,1011.65,VALID,0,VALID,99.2416,VALID,0.105969,VALID,22.426,VALID,357,VALID,0,
2009-09-21, 00:34:05,VALID,1011.64,VALID,0,VALID,99.2492,VALID,0.105969,VALID,22.4472,VALID,357,VALID,0,
2009-09-21, 00:35:05,VALID,1011.65,VALID,0,VALID,99.2492,VALID,0.105969,VALID,22.4472,VALID,357,VALID,0,
2009-09-21, 00:36:05,VALID,1011.63,VALID,0,VALID,99.2644,VALID,0,VALID,22.426,VALID,357,VALID,0,
2009-09-21, 00:37:05,VALID,1011.58,VALID,0,VALID,99.2492,VALID,0,VALID,22.4472,VALID,357,VALID,0,
2009-09-21, 00:38:05,VALID,1011.59,VALID,0,VALID,99.2568,VALID,0,VALID,22.4472,VALID,357,VALID,0,
2009-09-21, 00:39:05,VALID,1011.6,VALID,0,VALID,99.2568,VALID,0.105969,VALID,22.4082,VALID,357,VALID,0,
2009-09-21, 00:40:05,VALID,1011.6,VALID,0,VALID,99.2721,VALID,0.105969,VALID,22.4065,VALID,357,VALID,0,
2009-09-21, 00:41:05,VALID,1011.57,VALID,0,VALID,99.2416,VALID,0,VALID,22.4082,VALID,357,VALID,0,
2009-09-21, 00:42:05,VALID,1011.57,VALID,0,VALID,99.2339,VALID,0.105969,VALID,22.4277,VALID,357,VALID,0,
2009-09-21, 00:43:05,VALID,1011.55,VALID,0,VALID,99.2492,VALID,0.105969,VALID,22.4277,VALID,357,VALID,0,
2009-09-21, 00:44:05,VALID,1011.53,VALID,0,VALID,99.2492,VALID,0.105969,VALID,22.4082,VALID,357,VALID,0,
2009-09-21, 00:45:05,VALID,1011.54,VALID,0,VALID,99.2721,VALID,0,VALID,22.4082,VALID,357,VALID,0,
2009-09-21, 00:46:05,VALID,1011.49,VALID,0,VALID,99.2644,VALID,0.105969,VALID,22.3887,VALID,357,VALID,0,
2009-09-21, 00:47:05,VALID,1011.49,VALID,0,VALID,99.2416,VALID,0.105969,VALID,22.4082,VALID,357,VALID,0,
2009-09-21, 00:48:05,VALID,1011.47,VALID,0,VALID,99.2568,VALID,0,VALID,22.3887,VALID,357,VALID,0,
2009-09-21, 00:49:05,VALID,1011.43,VALID,0,VALID,99.2568,VALID,0,VALID,22.4082,VALID,357,VALID,0,
2009-09-21, 00:50:05,VALID,1011.45,VALID,0,VALID,99.2644,VALID,0,VALID,22.4082,VALID,357,VALID,0,
2009-09-21, 00:51:05,VALID,1011.46,VALID,0,VALID,99.2873,VALID,0,VALID,22.4082,VALID,357,VALID,0,
2009-09-21, 00:52:05,VALID,1011.44,VALID,0,VALID,99.2797,VALID,0.105969,VALID,22.3887,VALID,357,VALID,0,
2009-09-21, 00:53:05,VALID,1011.42,VALID,0,VALID,99.2873,VALID,0.105969,VALID,22.3887,VALID,357,VALID,0,
2009-09-21, 00:54:05,VALID,1011.42,VALID,0,VALID,99.2949,VALID,0.105969,VALID,22.3676,VALID,357,VALID,0,
2009-09-21, 00:55:05,VALID,1011.38,VALID,0,VALID,99.2721,VALID,0,VALID,22.3676,VALID,357,VALID,0,
2009-09-21, 00:56:05,VALID,1011.38,VALID,0,VALID,99.2721,VALID,0,VALID,22.3887,VALID,357,VALID,0,
2009-09-21, 00:57:05,VALID,1011.35,VALID,0,VALID,99.3026,VALID,0.105969,VALID,22.3887,VALID,357,VALID,0,
2009-09-21, 00:58:05,VALID,1011.36,VALID,0,VALID,99.2949,VALID,0,VALID,22.3887,VALID,357,VALID,0,
2009-09-21, 00:59:05,VALID,1011.35,VALID,0,VALID,99.3026,VALID,0,VALID,22.4082,VALID,357,VALID,0,
2009-09-21, 01:00:05,VALID,1011.31,VALID,0,VALID,99.2873,VALID,0,VALID,22.4082,VALID,357,VALID,0,
2009-09-21, 01:01:05,VALID,1011.3,VALID,0,VALID,99.2949,VALID,0,VALID,22.4082,VALID,357,VALID,0,
2009-09-21, 01:02:05,VALID,1011.31,VALID,0,VALID,99.2721,VALID,0.105969,VALID,22.3887,VALID,357,VALID,0,
2009-09-21, 01:03:05,VALID,1011.33,VALID,0,VALID,99.3178,VALID,0.105969,VALID,22.3676,VALID,357,VALID,0,
2009-09-21, 01:04:05,VALID,1011.33,VALID,0,VALID,99.3254,VALID,0,VALID,22.3887,VALID,357,VALID,0,
2009-09-21, 01:05:05,VALID,1011.32,VALID,0,VALID,99.3331,VALID,0,VALID,22.3693,VALID,357,VALID,0,
2009-09-21, 01:06:05,VALID,1011.32,VALID,0,VALID,99.3026,VALID,0,VALID,22.3693,VALID,357,VALID,0,
2009-09-21, 01:07:05,VALID,1011.31,VALID,0,VALID,99.3102,VALID,0,VALID,22.3693,VALID,357,VALID,0,
2009-09-21, 01:08:05,VALID,1011.32,VALID,0,VALID,99.3331,VALID,0,VALID,22.3498,VALID,357,VALID,0,
2009-09-21, 01:09:05,VALID,1011.32,VALID,0,VALID,99.3102,VALID,0.105969,VALID,22.3693,VALID,357,VALID,0,
2009-09-21, 01:10:05,VALID,1011.28,VALID,0,VALID,99.3254,VALID,0,VALID,22.3498,VALID,357,VALID,0,
2009-09-21, 01:11:05,VALID,1011.28,VALID,0,VALID,99.3026,VALID,0.105969,VALID,22.3498,VALID,357,VALID,0,
2009-09-21, 01:12:05,VALID,1011.29,VALID,0,VALID,99.3102,VALID,0,VALID,22.3498,VALID,357,VALID,0,
2009-09-21, 01:13:05,VALID,1011.3,VALID,0,VALID,99.3254,VALID,0,VALID,22.3498,VALID,357,VALID,0,
2009-09-21, 01:14:05,VALID,1011.33,VALID,0,VALID,99.3254,VALID,0,VALID,22.3515,VALID,357,VALID,0,
2009-09-21, 01:15:05,VALID,1011.29,VALID,0,VALID,99.3407,VALID,0,VALID,22.3303,VALID,357,VALID,0,
2009-09-21, 01:16:05,VALID,1011.28,VALID,0,VALID,99.3254,VALID,0,VALID,22.3515,VALID,357,VALID,0,
2009-09-21, 01:17:05,VALID,1011.26,VALID,0,VALID,99.3254,VALID,0,VALID,22.3108,VALID,357,VALID,0,
2009-09-21, 01:18:05,VALID,1011.25,VALID,0,VALID,99.3483,VALID,0,VALID,22.3108,VALID,357,VALID,0,
2009-09-21, 01:19:05,VALID,1011.28,VALID,0,VALID,99.3254,VALID,0,VALID,22.3108,VALID,357,VALID,0,
2009-09-21, 01:20:05,VALID,1011.28,VALID,0,VALID,99.3102,VALID,0,VALID,22.2914,VALID,357,VALID,0,
2009-09-21, 01:21:05,VALID,1011.28,VALID,0,VALID,99.3331,VALID,0,VALID,22.3108,VALID,357,VALID,0,
2009-09-21, 01:22:05,VALID,1011.3,VALID,0,VALID,99.3254,VALID,0,VALID,22.3108,VALID,357,VALID,0,
2009-09-21, 01:23:05,VALID,1011.28,VALID,0,VALID,99.3254,VALID,0,VALID,22.332,VALID,357,VALID,0,
2009-09-21, 01:24:05,VALID,1011.29,VALID,0,VALID,99.3254,VALID,0,VALID,22.332,VALID,357,VALID,0,
2009-09-21, 01:25:05,VALID,1011.26,VALID,0,VALID,99.3407,VALID,0,VALID,22.2914,VALID,357,VALID,0,
2009-09-21, 01:26:05,VALID,1011.28,VALID,0,VALID,99.3254,VALID,0,VALID,22.3125,VALID,357,VALID,0,
2009-09-21, 01:27:05,VALID,1011.24,VALID,0,VALID,99.3254,VALID,0,VALID,22.3125,VALID,357,VALID,0,
2009-09-21, 01:28:05,VALID,1011.21,VALID,0,VALID,99.3331,VALID,0,VALID,22.3125,VALID,357,VALID,0,
2009-09-21, 01:29:05,VALID,1011.21,VALID,0,VALID,99.3178,VALID,0,VALID,22.3108,VALID,357,VALID,0,
2009-09-21, 01:30:05,VALID,1011.23,VALID,0,VALID,99.3254,VALID,0.105969,VALID,22.3303,VALID,357,VALID,0,
2009-09-21, 01:31:05,VALID,1011.22,VALID,0,VALID,99.3483,VALID,0.105969,VALID,22.3108,VALID,357,VALID,0,
2009-09-21, 01:32:05,VALID,1011.26,VALID,0,VALID,99.3483,VALID,0.105969,VALID,22.3108,VALID,357,VALID,0,
2009-09-21, 01:33:05,VALID,1011.26,VALID,0,VALID,99.3407,VALID,0,VALID,22.2914,VALID,357,VALID,0,
2009-09-21, 01:34:05,VALID,1011.25,VALID,0,VALID,99.3559,VALID,0.105969,VALID,22.2897,VALID,357,VALID,0,
2009-09-21, 01:35:05,VALID,1011.26,VALID,0,VALID,99.3559,VALID,0.105969,VALID,22.2702,VALID,357,VALID,0,
2009-09-21, 01:36:05,VALID,1011.24,VALID,0,VALID,99.3102,VALID,0.105969,VALID,22.2702,VALID,357,VALID,0,
2009-09-21, 01:37:05,VALID,1011.26,VALID,0,VALID,99.3559,VALID,0,VALID,22.2702,VALID,357,VALID,0,
2009-09-21, 01:38:05,VALID,1011.26,VALID,0,VALID,99.3483,VALID,0,VALID,22.2719,VALID,357,VALID,0,
2009-09-21, 01:39:05,VALID,1011.28,VALID,0,VALID,99.3483,VALID,0.105969,VALID,22.2719,VALID,357,VALID,0,
2009-09-21, 01:40:05,VALID,1011.28,VALID,0,VALID,99.3712,VALID,0.105969,VALID,22.2719,VALID,357,VALID,0,
2009-09-21, 01:41:05,VALID,1011.31,VALID,0,VALID,99.3864,VALID,0.105969,VALID,22.2312,VALID,357,VALID,0,
2009-09-21, 01:42:05,VALID,1011.3,VALID,0,VALID,99.3712,VALID,0,VALID,22.2524,VALID,357,VALID,0,
2009-09-21, 01:43:04,VALID,1011.3,VALID,0,VALID,99.3559,VALID,0,VALID,22.2329,VALID,357,VALID,0,
2009-09-21, 01:44:04,VALID,1011.3,VALID,0,VALID,99.3712,VALID,0,VALID,22.2541,VALID,357,VALID,0,
2009-09-21, 01:45:04,VALID,1011.31,VALID,0,VALID,99.3407,VALID,0,VALID,22.2346,VALID,357,VALID,0,
2009-09-21, 01:46:04,VALID,1011.28,VALID,0,VALID,99.3559,VALID,0,VALID,22.2346,VALID,357,VALID,0,
2009-09-21, 01:47:04,VALID,1011.25,VALID,0,VALID,99.3559,VALID,0,VALID,22.2134,VALID,357,VALID,0,
2009-09-21, 01:48:04,VALID,1011.24,VALID,0,VALID,99.3407,VALID,0,VALID,22.2134,VALID,357,VALID,0,
2009-09-21, 01:49:04,VALID,1011.24,VALID,0,VALID,99.3483,VALID,0,VALID,22.2541,VALID,357,VALID,0,
2009-09-21, 01:50:04,VALID,1011.22,VALID,0,VALID,99.3254,VALID,0,VALID,22.2736,VALID,357,VALID,0,
2009-09-21, 01:51:04,VALID,1011.2,VALID,0,VALID,99.3331,VALID,0,VALID,22.2719,VALID,357,VALID,0,
2009-09-21, 01:52:04,VALID,1011.18,VALID,0,VALID,99.3407,VALID,0,VALID,22.2719,VALID,357,VALID,0,
2009-09-21, 01:53:04,VALID,1011.19,VALID,0,VALID,99.3483,VALID,0,VALID,22.2719,VALID,357,VALID,0,
2009-09-21, 01:54:04,VALID,1011.18,VALID,0,VALID,99.3407,VALID,0,VALID,22.2719,VALID,357,VALID,0,
2009-09-21, 01:55:04,VALID,1011.17,VALID,0,VALID,99.3712,VALID,0,VALID,22.293,VALID,357,VALID,0,
2009-09-21, 01:56:04,VALID,1011.2,VALID,0,VALID,99.3636,VALID,0,VALID,22.2719,VALID,357,VALID,0,
2009-09-21, 01:57:04,VALID,1011.19,VALID,0,VALID,99.3483,VALID,0,VALID,22.2736,VALID,357,VALID,0,
2009-09-21, 01:58:04,VALID,1011.18,VALID,0,VALID,99.3559,VALID,0,VALID,22.293,VALID,357,VALID,0,
2009-09-21, 01:59:04,VALID,1011.17,VALID,0,VALID,99.3331,VALID,0,VALID,22.2719,VALID,357,VALID,0,
2009-09-21, 02:00:04,VALID,1011.14,VALID,0,VALID,99.3559,VALID,0,VALID,22.293,VALID,357,VALID,0,
2009-09-21, 02:01:04,VALID,1011.15,VALID,0,VALID,99.3331,VALID,0,VALID,22.2719,VALID,357,VALID,0,
2009-09-21, 02:02:04,VALID,1011.13,VALID,0,VALID,99.3559,VALID,0,VALID,22.2719,VALID,357,VALID,0,
2009-09-21, 02:03:04,VALID,1011.13,VALID,0,VALID,99.3407,VALID,0,VALID,22.2719,VALID,357,VALID,0,
2009-09-21, 02:04:04,VALID,1011.12,VALID,0,VALID,99.3407,VALID,0,VALID,22.2719,VALID,357,VALID,0,
2009-09-21, 02:05:04,VALID,1011.11,VALID,0,VALID,99.3712,VALID,0,VALID,22.2719,VALID,357,VALID,0,
2009-09-21, 02:06:04,VALID,1011.1,VALID,0,VALID,99.3636,VALID,0,VALID,22.2736,VALID,357,VALID,0,
2009-09-21, 02:07:04,VALID,1011.1,VALID,0,VALID,99.3483,VALID,0,VALID,22.2914,VALID,357,VALID,0,
2009-09-21, 02:08:04,VALID,1011.09,VALID,0,VALID,99.3407,VALID,0,VALID,22.3125,VALID,357,VALID,0,
2009-09-21, 02:09:04,VALID,1011.06,VALID,0,VALID,99.3407,VALID,0,VALID,22.293,VALID,357,VALID,0,
2009-09-21, 02:10:04,VALID,1011.04,VALID,0,VALID,99.3559,VALID,0,VALID,22.3125,VALID,357,VALID,0,
2009-09-21, 02:11:04,VALID,1011.02,VALID,0,VALID,99.3407,VALID,0,VALID,22.3108,VALID,357,VALID,0,
2009-09-21, 02:12:04,VALID,1011.03,VALID,0,VALID,99.3483,VALID,0,VALID,22.3108,VALID,357,VALID,0,
2009-09-21, 02:13:04,VALID,1011,VALID,0,VALID,99.3636,VALID,0,VALID,22.332,VALID,357,VALID,0,
2009-09-21, 02:14:04,VALID,1011,VALID,0,VALID,99.3636,VALID,0,VALID,22.3091,VALID,357,VALID,0,
2009-09-21, 02:15:04,VALID,1011.02,VALID,0,VALID,99.3636,VALID,0,VALID,22.3108,VALID,357,VALID,0,
2009-09-21, 02:16:04,VALID,1011,VALID,0,VALID,99.3559,VALID,0.105969,VALID,22.3108,VALID,357,VALID,0,
2009-09-21, 02:17:04,VALID,1011.01,VALID,0,VALID,99.3712,VALID,0.105969,VALID,22.3091,VALID,357,VALID,0,
2009-09-21, 02:18:04,VALID,1010.98,VALID,0,VALID,99.3483,VALID,0.105969,VALID,22.3091,VALID,357,VALID,0,
2009-09-21, 02:19:04,VALID,1010.96,VALID,0,VALID,99.3483,VALID,0.105969,VALID,22.3498,VALID,357,VALID,0,
2009-09-21, 02:20:04,VALID,1010.94,VALID,0,VALID,99.3559,VALID,0.105969,VALID,22.3481,VALID,357,VALID,0,
2009-09-21, 02:21:04,VALID,1010.95,VALID,0,VALID,99.3712,VALID,0.105969,VALID,22.3498,VALID,357,VALID,0,
2009-09-21, 02:22:04,VALID,1010.93,VALID,0,VALID,99.3483,VALID,0,VALID,22.3498,VALID,357,VALID,0,
2009-09-21, 02:23:04,VALID,1010.92,VALID,0,VALID,99.3712,VALID,0.105969,VALID,22.3498,VALID,357,VALID,0,
2009-09-21, 02:24:04,VALID,1010.93,VALID,0,VALID,99.3559,VALID,0.105969,VALID,22.3091,VALID,357,VALID,0,
2009-09-21, 02:25:04,VALID,1010.92,VALID,0,VALID,99.3864,VALID,0.105969,VALID,22.3091,VALID,357,VALID,0,
2009-09-21, 02:26:04,VALID,1010.91,VALID,0,VALID,99.3559,VALID,0,VALID,22.3108,VALID,357,VALID,0,
2009-09-21, 02:27:04,VALID,1010.88,VALID,0,VALID,99.3712,VALID,0.105969,VALID,22.2914,VALID,357,VALID,0,
2009-09-21, 02:28:04,VALID,1010.89,VALID,0,VALID,99.3788,VALID,0.105969,VALID,22.2702,VALID,357,VALID,0,
2009-09-21, 02:29:04,VALID,1010.88,VALID,0,VALID,99.3788,VALID,0,VALID,22.293,VALID,357,VALID,0,
2009-09-21, 02:30:04,VALID,1010.83,VALID,0,VALID,99.3636,VALID,0,VALID,22.2524,VALID,357,VALID,0,
2009-09-21, 02:31:04,VALID,1010.88,VALID,0,VALID,99.3483,VALID,0,VALID,22.2719,VALID,357,VALID,0,
2009-09-21, 02:32:04,VALID,1010.86,VALID,0,VALID,99.3788,VALID,0,VALID,22.2736,VALID,357,VALID,0,
2009-09-21, 02:33:04,VALID,1010.87,VALID,0,VALID,99.3788,VALID,0,VALID,22.2736,VALID,357,VALID,0,
2009-09-21, 02:34:04,VALID,1010.82,VALID,0,VALID,99.3483,VALID,0,VALID,22.2736,VALID,357,VALID,0,
2009-09-21, 02:35:04,VALID,1010.81,VALID,0,VALID,99.3559,VALID,0,VALID,22.2541,VALID,357,VALID,0,
2009-09-21, 02:36:04,VALID,1010.8,VALID,0,VALID,99.3483,VALID,0,VALID,22.293,VALID,357,VALID,0,
2009-09-21, 02:37:04,VALID,1010.82,VALID,0,VALID,99.3483,VALID,0,VALID,22.293,VALID,357,VALID,0,
2009-09-21, 02:38:04,VALID,1010.81,VALID,0,VALID,99.3331,VALID,0,VALID,22.293,VALID,357,VALID,0,
2009-09-21, 02:39:04,VALID,1010.77,VALID,0,VALID,99.3331,VALID,0,VALID,22.2914,VALID,357,VALID,0,
2009-09-21, 02:40:04,VALID,1010.78,VALID,0,VALID,99.3483,VALID,0,VALID,22.3125,VALID,357,VALID,0,
2009-09-21, 02:41:04,VALID,1010.74,VALID,0,VALID,99.3407,VALID,0,VALID,22.293,VALID,357,VALID,0,
2009-09-21, 02:42:04,VALID,1010.71,VALID,0,VALID,99.3559,VALID,0,VALID,22.3125,VALID,357,VALID,0,
2009-09-21, 02:43:04,VALID,1010.69,VALID,0,VALID,99.3559,VALID,0,VALID,22.3125,VALID,357,VALID,0,
2009-09-21, 02:44:04,VALID,1010.69,VALID,0,VALID,99.3636,VALID,0.105969,VALID,22.2897,VALID,357,VALID,0,
2009-09-21, 02:45:04,VALID,1010.68,VALID,0,VALID,99.3407,VALID,0.105969,VALID,22.2897,VALID,357,VALID,0,
2009-09-21, 02:46:04,VALID,1010.68,VALID,0,VALID,99.3636,VALID,0.105969,VALID,22.2914,VALID,357,VALID,0,
2009-09-21, 02:47:04,VALID,1010.71,VALID,0,VALID,99.3636,VALID,0.105969,VALID,22.3108,VALID,357,VALID,0,
2009-09-21, 02:48:04,VALID,1010.73,VALID,0,VALID,99.3407,VALID,0.105969,VALID,22.2897,VALID,357,VALID,0,
2009-09-21, 02:49:04,VALID,1010.71,VALID,0,VALID,99.3559,VALID,0.105969,VALID,22.3108,VALID,357,VALID,0,
2009-09-21, 02:50:04,VALID,1010.69,VALID,0,VALID,99.3636,VALID,0,VALID,22.3091,VALID,357,VALID,0,
2009-09-21, 02:51:04,VALID,1010.69,VALID,0,VALID,99.3483,VALID,0.105969,VALID,22.3091,VALID,357,VALID,0,
2009-09-21, 02:52:04,VALID,1010.67,VALID,0,VALID,99.3559,VALID,0.105969,VALID,22.3286,VALID,357,VALID,0,
2009-09-21, 02:53:04,VALID,1010.69,VALID,0,VALID,99.3483,VALID,0.105969,VALID,22.3481,VALID,357,VALID,0,
2009-09-21, 02:54:04,VALID,1010.7,VALID,0,VALID,99.3636,VALID,0.105969,VALID,22.3693,VALID,357,VALID,0,
2009-09-21, 02:55:04,VALID,1010.67,VALID,0,VALID,99.3636,VALID,0.105969,VALID,22.3693,VALID,357,VALID,0,
2009-09-21, 02:56:04,VALID,1010.68,VALID,0,VALID,99.3788,VALID,0.105969,VALID,22.3498,VALID,357,VALID,0,
2009-09-21, 02:57:04,VALID,1010.68,VALID,0,VALID,99.3712,VALID,0.105969,VALID,22.3498,VALID,357,VALID,0,
2009-09-21, 02:58:04,VALID,1010.64,VALID,0,VALID,99.3788,VALID,0.105969,VALID,22.3498,VALID,357,VALID,0,
2009-09-21, 02:59:04,VALID,1010.63,VALID,0,VALID,99.3559,VALID,0,VALID,22.3515,VALID,357,VALID,0,
2009-09-21, 03:00:04,VALID,1010.6,VALID,0,VALID,99.3559,VALID,0,VALID,22.3515,VALID,357,VALID,0,
2009-09-21, 03:01:04,VALID,1010.56,VALID,0,VALID,99.3788,VALID,0,VALID,22.3515,VALID,357,VALID,0,
2009-09-21, 03:02:04,VALID,1010.57,VALID,0,VALID,99.3636,VALID,0,VALID,22.332,VALID,357,VALID,0,
2009-09-21, 03:03:04,VALID,1010.54,VALID,0,VALID,99.3559,VALID,0,VALID,22.332,VALID,357,VALID,0,
2009-09-21, 03:04:04,VALID,1010.54,VALID,0,VALID,99.3788,VALID,0,VALID,22.332,VALID,357,VALID,0,
2009-09-21, 03:05:04,VALID,1010.54,VALID,0,VALID,99.3864,VALID,0,VALID,22.3303,VALID,357,VALID,0,
2009-09-21, 03:06:04,VALID,1010.52,VALID,0,VALID,99.3636,VALID,0,VALID,22.332,VALID,357,VALID,0,
2009-09-21, 03:07:04,VALID,1010.5,VALID,0,VALID,99.3712,VALID,0,VALID,22.3108,VALID,357,VALID,0,
2009-09-21, 03:08:04,VALID,1010.51,VALID,0,VALID,99.3636,VALID,0,VALID,22.332,VALID,357,VALID,0,
2009-09-21, 03:09:04,VALID,1010.54,VALID,0,VALID,99.3636,VALID,0,VALID,22.332,VALID,357,VALID,0,
2009-09-21, 03:10:04,VALID,1010.52,VALID,0,VALID,99.3559,VALID,0,VALID,22.3108,VALID,357,VALID,0,
2009-09-21, 03:11:04,VALID,1010.53,VALID,0,VALID,99.3788,VALID,0,VALID,22.3125,VALID,357,VALID,0,
2009-09-21, 03:12:04,VALID,1010.53,VALID,0,VALID,99.3636,VALID,0,VALID,22.2914,VALID,357,VALID,0,
2009-09-21, 03:13:04,VALID,1010.51,VALID,0,VALID,99.3712,VALID,0,VALID,22.2914,VALID,357,VALID,0,
2009-09-21, 03:14:04,VALID,1010.52,VALID,0,VALID,99.3636,VALID,0.105969,VALID,22.2914,VALID,357,VALID,0,
2009-09-21, 03:15:04,VALID,1010.49,VALID,0,VALID,99.3712,VALID,0.105969,VALID,22.2914,VALID,357,VALID,0,
2009-09-21, 03:16:04,VALID,1010.47,VALID,0,VALID,99.3559,VALID,0.105969,VALID,22.2719,VALID,357,VALID,0,
2009-09-21, 03:17:04,VALID,1010.48,VALID,0,VALID,99.3559,VALID,0.105969,VALID,22.2719,VALID,357,VALID,0,
2009-09-21, 03:18:04,VALID,1010.52,VALID,0,VALID,99.3636,VALID,0.105969,VALID,22.2507,VALID,357,VALID,0,
2009-09-21, 03:19:04,VALID,1010.5,VALID,0,VALID,99.3788,VALID,0.105969,VALID,22.2524,VALID,357,VALID,0,
2009-09-21, 03:20:04,VALID,1010.5,VALID,0,VALID,99.3788,VALID,0.105969,VALID,22.2524,VALID,357,VALID,0,
2009-09-21, 03:21:04,VALID,1010.53,VALID,0,VALID,99.3712,VALID,0.105969,VALID,22.2118,VALID,357,VALID,0,
2009-09-21, 03:22:04,VALID,1010.49,VALID,0,VALID,99.3712,VALID,0.105969,VALID,22.2329,VALID,357,VALID,0,
2009-09-21, 03:23:04,VALID,1010.5,VALID,0,VALID,99.3636,VALID,0.105969,VALID,22.2118,VALID,357,VALID,0,
2009-09-21, 03:24:04,VALID,1010.47,VALID,0,VALID,99.3864,VALID,0.105969,VALID,22.2329,VALID,357,VALID,0,
2009-09-21, 03:25:04,VALID,1010.49,VALID,0,VALID,99.3864,VALID,0.105969,VALID,22.1923,VALID,357,VALID,0,
2009-09-21, 03:26:04,VALID,1010.49,VALID,0,VALID,99.4017,VALID,0.105969,VALID,22.2134,VALID,357,VALID,0,
2009-09-21, 03:27:04,VALID,1010.51,VALID,0,VALID,99.3864,VALID,0.105969,VALID,22.2134,VALID,357,VALID,0,
2009-09-21, 03:28:04,VALID,1010.53,VALID,0,VALID,99.3712,VALID,0.105969,VALID,22.194,VALID,357,VALID,0,
2009-09-21, 03:29:04,VALID,1010.54,VALID,0,VALID,99.3941,VALID,0,VALID,22.1957,VALID,357,VALID,0,
2009-09-21, 03:30:04,VALID,1010.54,VALID,0,VALID,99.3941,VALID,0,VALID,22.1762,VALID,357,VALID,0,
2009-09-21, 03:31:04,VALID,1010.52,VALID,0,VALID,99.3941,VALID,0,VALID,22.1762,VALID,357,VALID,0,
2009-09-21, 03:32:04,VALID,1010.53,VALID,0,VALID,99.4017,VALID,0,VALID,22.1567,VALID,357,VALID,0,
2009-09-21, 03:33:04,VALID,1010.56,VALID,0,VALID,99.4169,VALID,0,VALID,22.1372,VALID,357,VALID,0,
2009-09-21, 03:34:04,VALID,1010.56,VALID,0,VALID,99.4093,VALID,0,VALID,22.1372,VALID,357,VALID,0,
2009-09-21, 03:35:04,VALID,1010.58,VALID,0,VALID,99.4017,VALID,0,VALID,22.1372,VALID,357,VALID,0,
2009-09-21, 03:36:04,VALID,1010.58,VALID,0,VALID,99.4093,VALID,0,VALID,22.1177,VALID,357,VALID,0,
2009-09-21, 03:37:04,VALID,1010.56,VALID,0,VALID,99.4169,VALID,0,VALID,22.0983,VALID,357,VALID,0,
2009-09-21, 03:38:04,VALID,1010.59,VALID,0,VALID,99.4093,VALID,0,VALID,22.0966,VALID,357,VALID,0,
2009-09-21, 03:39:04,VALID,1010.57,VALID,0,VALID,99.4093,VALID,0,VALID,22.0983,VALID,357,VALID,0,
2009-09-21, 03:40:04,VALID,1010.57,VALID,0,VALID,99.4093,VALID,0,VALID,22.0983,VALID,357,VALID,0,
2009-09-21, 03:41:04,VALID,1010.54,VALID,0,VALID,99.4169,VALID,0,VALID,22.0771,VALID,357,VALID,0,
2009-09-21, 03:42:04,VALID,1010.58,VALID,0,VALID,99.3941,VALID,0,VALID,22.0983,VALID,357,VALID,0,
2009-09-21, 03:43:04,VALID,1010.55,VALID,0,VALID,99.4093,VALID,0,VALID,22.0788,VALID,357,VALID,0,
2009-09-21, 03:44:04,VALID,1010.56,VALID,0,VALID,99.4246,VALID,0,VALID,22.0771,VALID,357,VALID,0,
2009-09-21, 03:45:04,VALID,1010.57,VALID,0,VALID,99.4017,VALID,0,VALID,22.0576,VALID,357,VALID,0,
2009-09-21, 03:46:04,VALID,1010.55,VALID,0,VALID,99.4322,VALID,0,VALID,22.0398,VALID,357,VALID,0,
2009-09-21, 03:47:04,VALID,1010.55,VALID,0,VALID,99.4246,VALID,0,VALID,22.0204,VALID,357,VALID,0,
2009-09-21, 03:48:04,VALID,1010.56,VALID,0,VALID,99.4474,VALID,0,VALID,22.0009,VALID,357,VALID,0,
2009-09-21, 03:49:04,VALID,1010.55,VALID,0,VALID,99.4322,VALID,0,VALID,21.9814,VALID,357,VALID,0,
2009-09-21, 03:50:04,VALID,1010.56,VALID,0,VALID,99.4322,VALID,0,VALID,21.9619,VALID,357,VALID,0,
2009-09-21, 03:51:04,VALID,1010.53,VALID,0,VALID,99.4246,VALID,0,VALID,21.9619,VALID,357,VALID,0,
2009-09-21, 03:52:04,VALID,1010.56,VALID,0,VALID,99.4169,VALID,0,VALID,21.9424,VALID,357,VALID,0,
2009-09-21, 03:53:04,VALID,1010.55,VALID,0,VALID,99.4246,VALID,0,VALID,21.9424,VALID,357,VALID,0,